Regional Weather Roundup
Issued by NWS

Home | Current Version | Previous Version | Graphics & Text | Print | Product List | Glossary On
Versions: 1 2 3 4 5 6 7 8 9 10 11 12 13 14 15 16 17 18 19 20 21 22 23 24 25 26 27 28 29 30 31 32 33 34 35 36 37 38 39 40 41 42 43 44 45 46 47 48 49 50
754
ASUS45 KPSR 250710
RWRAZ

ARIZONA HOURLY REGIONAL WEATHER ROUNDUP
NATIONAL WEATHER SERVICE PHOENIX AZ
1200 AM MST WED MAY 25 2016

NOTE: FAIR INDICATES FEW OR NO CLOUDS BELOW 12,000 FEET WITH NO
SIGNIFICANT WEATHER AND/OR OBSTRUCTIONS TO VISIBILITY.

AZZ001>003-036-250800-
NORTHWEST ARIZONA

CITY           SKY/WX    TMP DP  RH WIND       PRES   REMARKS
BULLHEAD CITY  CLEAR     77  28  16 SE16      29.87S
KINGMAN        PTCLDY    59  22  24 E5        29.97S
$$

AZZ004>008-015-016-018-250800-
NORTH CENTRAL ARIZONA

CITY           SKY/WX    TMP DP  RH WIND       PRES   REMARKS
GRAND CANYON   PTCLDY    42  16  34 SW7       30.10F
WILLIAMS       PTCLDY    50  14  23 S15G22    30.18S
PRESCOTT       PTCLDY    54  16  22 E5        30.07S
FLAGSTAFF      PTCLDY    46  15  28 W8        30.12F
PAYSON         CLEAR     54  23  30 CALM      30.10F
PAGE           PTCLDY    64  23  21 W10       29.98S
$$

AZZ009>014-017-250800-
NORTHEAST ARIZONA

CITY           SKY/WX    TMP DP  RH WIND       PRES   REMARKS
WINSLOW        CLEAR     48  21  34 CALM      30.06R
SAINT JOHNS    CLEAR     50  17  27 W9        30.10S
WINDOW ROCK    CLEAR     49  14  24 S5        30.13F
SHOW LOW       CLEAR     48  16  27 CALM      30.13S
$$

AZZ023-250800-
GREATER PHOENIX AREA

CITY           SKY/WX    TMP DP  RH WIND       PRES   REMARKS
PHOENIX        CLEAR     73  27  18 SW6       29.90S
BUCKEYE        CLEAR     64  28  25 CALM      29.92S
LUKE AFB       CLEAR     74  23  15 S6        29.89S
DEER VALLEY    CLEAR     70  18  13 CALM      29.91S
SCOTTSDALE     CLEAR     73  19  13 CALM      29.93S
MESA-GATEWAY   CLEAR     72  27  18 CALM      29.93R
$$

AZZ027-028-250800-
SOUTHWEST MARICOPA COUNTY AND PINAL COUNTY

CITY           SKY/WX    TMP DP  RH WIND       PRES   REMARKS
CASA GRANDE    CLEAR     70  27  19 W3        29.93F
GILA BEND      FAIR      67  21  17 S7        29.90S
$$

AZZ503-504-507>509-250800-
SOUTHEAST ARIZONA

CITY           SKY/WX    TMP DP  RH WIND       PRES   REMARKS
TUCSON         CLEAR     72  34  24 CALM      30.02R
DAVIS-MONTHAN  CLEAR     69  36  29 W6        30.00S
NOGALES        CLEAR     59  31  34 SE3       30.06F
SIERRA VISTA   CLEAR     62  12  14 SW7       30.11F
DOUGLAS        CLEAR     64  20  18 SW13      30.08F
SAFFORD        CLEAR     70  22  16 NW13      29.97S
$$

AZZ020-021-025-026-031-250800-
SOUTHWEST ARIZONA

CITY           SKY/WX    TMP DP  RH WIND       PRES   REMARKS
YUMA           CLEAR     69  41  36 NW8       29.90F
$$

CAZ031-033-041-043-047-048-061-250800-
SOUTHERN CALIFORNIA

CITY           SKY/WX    TMP DP  RH WIND       PRES   REMARKS
DOWNTOWN L.A.  MOCLDY    60  51  72 CALM      30.05S
L.A. AIRPORT   PTCLDY    59  53  80 W10       30.05F
SAN DIEGO      MOCLDY    63  52  67 NW6       30.07F
BURBANK        PTCLDY    57  50  77 SE3       30.04F
ONTARIO        MOCLDY    58  49  72 W9        30.05S
RIVERSIDE      CLOUDY    58  50  75 W6        30.05S
PALM SPRINGS     N/A     69  42  37 MISG      29.90F
EL CENTRO NAS  CLEAR     66  38  35 W21       29.92S
IMPERIAL       CLEAR     65  41  41 W15       29.89S
BLYTHE         CLEAR     67  46  47 SE12      29.88F
NEEDLES        CLEAR     74  34  23 NE7       29.86S
$$

NVZ020-UTZ003-250800-
SOUTHERN NEVADA-UTAH

CITY           SKY/WX    TMP DP  RH WIND       PRES   REMARKS
LAS VEGAS      PTCLDY    69  32  25 SW7       29.87R
SALT LAKE CITY PTCLDY    55  39  54 S8        29.94S
$$

NMZ009-TXZ055-250800-
NEW MEXICO-WEST TEXAS

CITY           SKY/WX    TMP DP  RH WIND       PRES   REMARKS
ALBUQUERQUE    CLEAR     66  12  12 CALM      30.06S
EL PASO        CLEAR     78  17  10 W23G33    30.00S
$$


........................KEY........................
SKY/WX - SKY CONDITION/WEATHER
TMP    - TEMPERATURE IN FAHRENHEIT
DP     - DEW POINT IN FAHRENHEIT
RH     - RELATIVE HUMIDITY IN PERCENT
WIND   - DIRECTION AND SPEED IN MILES PER HOUR (MPH)
VRB    - VARIABLE WIND DIRECTION
PRES   - MEAN SEA LEVEL PRESSURE IN INCHES OF MERCURY
         F - FALLING PRESSURE   R - RISING PRESSURE
         S - STEADY PRESSURE
VSB    - VISIBILITY IN MILES
HX     - HEAT INDEX IN FAHRENHEIT
WCI    - WIND CHILL INDEX IN FAHRENHEIT
TC     - TEMPERATURE IN CELSIUS WHICH IS ALSO KNOWN AS
         TEMPERATURE IN CENTIGRADE
AFB    - AIR FORCE BASE
         LUKE AFB IS LUKE AIR FORCE BASE
         DAVIS-MONTHAN IS DAVIS-MONTHAN AIR FORCE BASE
NAS    - NAVAL AIR STATION
         EL CENTRO NAS IS EL CENTRO NAVAL AIR STATION
N/A    - NOT AVAILABLE





USA.gov is the U.S. government's official web portal to all federal, state and local government web resources and services.